Time,TemperatureF,DewpointF,PressureIn,WindDirection,WindDirectionDegrees,WindSpeedMPH,WindSpeedGustMPH,Humidity,HourlyPrecipIn,Conditions,Clouds,dailyrainin,SoftwareType,DateUTC
2013-05-05 00:00:00,57.3,57.3,29.41,ESE,115,0.0,0.0,100,0.00,,,0.00,VWS V14.01,2013-05-05 04:00:00,
2013-05-05 00:03:00,57.3,57.3,29.41,SSW,213,0.0,0.0,100,0.00,,,0.00,VWS V14.01,2013-05-05 04:03:00,
2013-05-05 00:08:00,57.3,57.3,29.41,SSW,207,0.0,3.6,100,0.00,,,0.00,VWS V14.01,2013-05-05 04:08:00,
2013-05-05 00:10:00,57.3,57.3,29.41,SSW,207,0.0,3.6,100,0.00,,,0.00,VWS V14.01,2013-05-05 04:10:00,
2013-05-05 00:13:00,57.3,57.3,29.41,NW,306,0.0,0.0,100,0.00,,,0.00,VWS V14.01,2013-05-05 04:13:00,
2013-05-05 00:18:00,57.3,57.3,29.41,NNE,23,0.0,0.0,100,0.00,,,0.00,VWS V14.01,2013-05-05 04:18:00,
2013-05-05 00:23:00,57.1,57.1,29.41,South,186,0.0,0.0,100,0.00,,,0.00,VWS V14.01,2013-05-05 04:23:00,
2013-05-05 00:28:00,57.1,57.1,29.41,South,171,0.0,0.0,100,0.00,,,0.00,VWS V14.01,2013-05-05 04:28:00,
2013-05-05 00:30:00,57.1,57.1,29.41,South,171,0.0,0.0,100,0.00,,,0.00,VWS V14.01,2013-05-05 04:30:00,
2013-05-05 00:33:00,57.1,57.1,29.38,SSE,166,0.0,0.0,100,0.00,,,0.00,VWS V14.01,2013-05-05 04:33:00,
2013-05-05 00:38:00,57.1,57.1,29.38,East,79,0.0,0.0,100,0.00,,,0.00,VWS V14.01,2013-05-05 04:38:00,
2013-05-05 00:40:00,57.1,57.1,29.38,South,178,0.0,0.0,100,0.00,,,0.00,VWS V14.01,2013-05-05 04:40:00,
2013-05-05 00:48:00,57.1,57.1,29.35,SE,141,2.2,2.2,100,0.00,,,0.00,VWS V14.01,2013-05-05 04:48:00,
2013-05-05 00:50:00,57.1,57.1,29.35,SE,141,2.2,2.2,100,0.00,,,0.00,VWS V14.01,2013-05-05 04:50:00,
2013-05-05 00:53:00,57.1,57.1,29.35,SE,141,2.2,2.2,100,0.00,,,0.00,VWS V14.01,2013-05-05 04:53:00,
2013-05-05 00:58:00,57.3,57.3,29.35,SSE,165,0.0,2.2,100,0.00,,,0.00,VWS V14.01,2013-05-05 04:58:00,
2013-05-05 01:00:00,57.3,57.3,29.35,SSE,166,0.0,2.2,100,0.00,,,0.00,VWS V14.01,2013-05-05 05:00:00,
2013-05-05 01:03:00,57.3,57.3,29.35,SSW,194,0.0,0.0,100,0.00,,,0.00,VWS V14.01,2013-05-05 05:03:00,
2013-05-05 01:08:00,57.3,57.3,29.35,SW,229,0.0,0.0,100,0.00,,,0.00,VWS V14.01,2013-05-05 05:08:00,
2013-05-05 01:10:00,57.3,57.3,29.38,SW,229,0.0,0.0,100,0.00,,,0.00,VWS V14.01,2013-05-05 05:10:00,
2013-05-05 01:13:00,57.3,57.3,29.38,SW,229,0.0,0.0,100,0.00,,,0.00,VWS V14.01,2013-05-05 05:13:00,
2013-05-05 01:18:00,57.3,57.3,29.38,SSE,162,3.1,3.1,100,0.00,,,0.00,VWS V14.01,2013-05-05 05:18:00,
2013-05-05 01:20:00,57.3,57.3,29.35,SSE,162,3.1,3.1,100,0.00,,,0.00,VWS V14.01,2013-05-05 05:20:00,
2013-05-05 01:28:00,57.3,57.3,29.35,SSE,151,0.0,3.1,100,0.00,,,0.00,VWS V14.01,2013-05-05 05:28:00,
2013-05-05 01:30:00,57.3,57.3,29.35,East,79,0.0,3.1,100,0.00,,,0.00,VWS V14.01,2013-05-05 05:30:00,
2013-05-05 01:38:00,57.3,57.3,29.41,SSW,192,0.0,0.0,100,0.00,,,0.00,VWS V14.01,2013-05-05 05:38:00,
2013-05-05 01:40:00,57.3,57.3,29.41,SSW,192,0.0,0.0,100,0.00,,,0.00,VWS V14.01,2013-05-05 05:40:00,
2013-05-05 01:48:00,57.3,57.3,29.41,SSW,193,0.0,0.0,100,0.00,,,0.00,VWS V14.01,2013-05-05 05:48:00,
2013-05-05 01:50:00,57.3,57.3,29.38,SSW,194,0.0,0.0,100,0.00,,,0.00,VWS V14.01,2013-05-05 05:50:00,
2013-05-05 01:58:00,57.3,57.3,29.38,NW,308,0.0,0.0,100,0.00,,,0.00,VWS V14.01,2013-05-05 05:58:00,
2013-05-05 02:00:00,57.3,57.3,29.38,SW,230,0.0,0.0,100,0.00,,,0.00,VWS V14.01,2013-05-05 06:00:00,
2013-05-05 02:03:00,57.3,57.3,29.35,WNW,283,2.7,2.7,100,0.00,,,0.00,VWS V14.01,2013-05-05 06:03:00,
2013-05-05 02:08:00,57.3,57.3,29.35,WSW,247,0.0,2.7,100,0.00,,,0.00,VWS V14.01,2013-05-05 06:08:00,
2013-05-05 02:10:00,57.3,57.3,29.35,WSW,247,0.0,2.7,100,0.00,,,0.00,VWS V14.01,2013-05-05 06:10:00,
2013-05-05 02:13:00,57.3,57.3,29.35,West,260,0.0,0.0,100,0.00,,,0.00,VWS V14.01,2013-05-05 06:13:00,
2013-05-05 02:18:00,57.3,57.3,29.38,West,276,2.2,2.2,100,0.00,,,0.00,VWS V14.01,2013-05-05 06:18:00,
2013-05-05 02:20:00,57.3,57.3,29.38,West,276,2.2,2.2,100,0.00,,,0.00,VWS V14.01,2013-05-05 06:20:00,
2013-05-05 02:23:00,57.3,57.3,29.38,West,276,2.2,2.2,100,0.00,,,0.00,VWS V14.01,2013-05-05 06:23:00,
2013-05-05 02:28:00,57.5,57.5,29.38,SW,229,0.0,2.2,100,0.00,,,0.00,VWS V14.01,2013-05-05 06:28:00,
2013-05-05 02:33:00,57.5,57.5,29.35,WNW,282,0.0,0.0,100,0.00,,,0.00,VWS V14.01,2013-05-05 06:33:00,
2013-05-05 02:38:00,57.5,57.5,29.35,WNW,282,0.0,0.0,100,0.00,,,0.00,VWS V14.01,2013-05-05 06:38:00,
2013-05-05 02:40:00,57.5,57.5,29.35,WSW,258,3.1,3.1,100,0.00,,,0.00,VWS V14.01,2013-05-05 06:40:00,
2013-05-05 02:43:00,57.5,57.5,29.35,East,88,0.0,3.1,100,0.00,,,0.00,VWS V14.01,2013-05-05 06:43:00,
2013-05-05 02:48:00,57.5,57.5,29.35,SSW,196,0.0,3.1,100,0.00,,,0.00,VWS V14.01,2013-05-05 06:48:00,
2013-05-05 02:50:00,57.5,57.5,29.35,SSW,196,0.0,3.1,100,0.00,,,0.00,VWS V14.01,2013-05-05 06:50:00,
2013-05-05 02:58:00,57.5,57.5,29.35,SSW,194,0.0,0.0,100,0.00,,,0.00,VWS V14.01,2013-05-05 06:58:00,
2013-05-05 03:00:00,57.5,57.5,29.35,NNW,333,0.0,0.0,100,0.00,,,0.00,VWS V14.01,2013-05-05 07:00:00,
2013-05-05 03:03:00,57.5,57.5,29.35,NNW,333,0.0,0.0,100,0.00,,,0.00,VWS V14.01,2013-05-05 07:03:00,
2013-05-05 03:08:00,57.5,57.5,29.35,South,173,0.0,0.0,100,0.00,,,0.00,VWS V14.01,2013-05-05 07:08:00,
2013-05-05 03:10:00,57.5,57.5,29.35,South,175,0.0,0.0,100,0.00,,,0.00,VWS V14.01,2013-05-05 07:10:00,
2013-05-05 03:13:00,57.5,57.5,29.35,South,175,0.0,0.0,100,0.00,,,0.00,VWS V14.01,2013-05-05 07:13:00,
2013-05-05 03:18:00,57.5,57.5,29.35,SSW,206,0.0,0.0,100,0.00,,,0.00,VWS V14.01,2013-05-05 07:18:00,
2013-05-05 03:20:00,57.3,57.3,29.35,SSW,206,0.0,0.0,100,0.00,,,0.00,VWS V14.01,2013-05-05 07:20:00,
2013-05-05 03:28:00,57.3,57.3,29.35,WSW,256,0.0,0.0,100,0.00,,,0.00,VWS V14.01,2013-05-05 07:28:00,
2013-05-05 03:30:00,57.3,57.3,29.35,WSW,256,0.0,0.0,100,0.00,,,0.00,VWS V14.01,2013-05-05 07:30:00,
2013-05-05 03:38:00,57.3,57.3,29.32,SSW,204,3.6,4.5,100,0.00,,,0.00,VWS V14.01,2013-05-05 07:38:00,
2013-05-05 03:43:00,57.3,57.3,29.32,WNW,297,0.0,3.6,100,0.00,,,0.00,VWS V14.01,2013-05-05 07:43:00,
2013-05-05 03:48:00,57.1,57.1,29.32,South,176,0.0,3.6,100,0.00,,,0.00,VWS V14.01,2013-05-05 07:48:00,
2013-05-05 03:50:00,57.1,57.1,29.32,South,190,0.0,3.6,100,0.00,,,0.00,VWS V14.01,2013-05-05 07:50:00,
2013-05-05 03:53:00,57.1,57.1,29.32,South,190,0.0,0.0,100,0.00,,,0.00,VWS V14.01,2013-05-05 07:53:00,
2013-05-05 03:58:00,57.1,57.1,29.32,WSW,241,0.0,0.0,100,0.00,,,0.00,VWS V14.01,2013-05-05 07:58:00,
2013-05-05 04:00:00,57.1,57.1,29.32,ESE,112,0.0,0.0,100,0.00,,,0.00,VWS V14.01,2013-05-05 08:00:00,
2013-05-05 04:03:00,57.1,57.1,29.32,South,172,0.0,0.0,100,0.00,,,0.00,VWS V14.01,2013-05-05 08:03:00,
2013-05-05 04:08:00,57.1,57.1,29.32,South,172,0.0,0.0,100,0.00,,,0.00,VWS V14.01,2013-05-05 08:08:00,
2013-05-05 04:10:00,57.1,57.1,29.32,SW,219,0.0,0.0,100,0.00,,,0.00,VWS V14.01,2013-05-05 08:10:00,
2013-05-05 04:18:00,56.9,56.9,29.32,SSE,152,0.0,3.1,100,0.00,,,0.00,VWS V14.01,2013-05-05 08:18:00,
2013-05-05 04:20:00,56.9,56.9,29.32,SSE,152,0.0,3.1,100,0.00,,,0.00,VWS V14.01,2013-05-05 08:20:00,
2013-05-05 04:23:00,56.9,56.9,29.32,SSE,152,0.0,0.0,100,0.00,,,0.00,VWS V14.01,2013-05-05 08:23:00,
2013-05-05 04:28:00,56.9,56.9,29.32,South,171,0.0,0.0,100,0.00,,,0.00,VWS V14.01,2013-05-05 08:28:00,
2013-05-05 04:30:00,56.9,56.9,29.32,South,171,0.0,0.0,100,0.00,,,0.00,VWS V14.01,2013-05-05 08:30:00,
2013-05-05 04:38:00,56.9,56.9,29.32,SSW,201,0.0,0.0,100,0.00,,,0.00,VWS V14.01,2013-05-05 08:38:00,
2013-05-05 04:40:00,56.9,56.9,29.32,SSW,201,0.0,0.0,100,0.00,,,0.00,VWS V14.01,2013-05-05 08:40:00,
2013-05-05 04:43:00,56.9,56.9,29.32,South,170,3.1,3.1,100,0.00,,,0.00,VWS V14.01,2013-05-05 08:43:00,
2013-05-05 04:48:00,56.9,56.9,29.29,SSE,158,0.0,3.1,100,0.00,,,0.00,VWS V14.01,2013-05-05 08:48:00,
2013-05-05 04:50:00,56.9,56.9,29.29,SSE,158,0.0,3.1,100,0.00,,,0.00,VWS V14.01,2013-05-05 08:50:00,
2013-05-05 04:53:00,56.9,56.9,29.29,South,171,4.0,4.0,100,0.00,,,0.00,VWS V14.01,2013-05-05 08:53:00,
2013-05-05 04:58:00,56.7,56.7,29.29,South,171,4.0,4.0,100,0.00,,,0.00,VWS V14.01,2013-05-05 08:58:00,
2013-05-05 05:00:00,56.7,56.7,29.29,SW,231,0.0,4.0,100,0.00,,,0.00,VWS V14.01,2013-05-05 09:00:00,
2013-05-05 05:03:00,56.7,56.7,29.29,SSE,151,0.0,0.0,100,0.00,,,0.00,VWS V14.01,2013-05-05 09:03:00,
2013-05-05 05:08:00,56.7,56.7,29.29,SSW,201,0.0,0.0,100,0.00,,,0.00,VWS V14.01,2013-05-05 09:08:00,
2013-05-05 05:13:00,56.7,56.7,29.29,South,186,0.0,0.0,100,0.00,,,0.00,VWS V14.01,2013-05-05 09:13:00,
2013-05-05 05:18:00,56.7,56.7,29.29,SSE,166,0.0,0.0,100,0.00,,,0.00,VWS V14.01,2013-05-05 09:18:00,
2013-05-05 05:20:00,56.7,56.7,29.29,SE,145,0.0,0.0,100,0.00,,,0.00,VWS V14.01,2013-05-05 09:20:00,
2013-05-05 05:23:00,56.7,56.7,29.29,SE,145,0.0,0.0,100,0.00,,,0.00,VWS V14.01,2013-05-05 09:23:00,
2013-05-05 05:28:00,56.7,56.7,29.29,NNE,21,4.0,4.0,100,0.00,,,0.00,VWS V14.01,2013-05-05 09:28:00,
2013-05-05 05:30:00,56.7,56.7,29.29,NNE,21,4.0,4.0,100,0.00,,,0.00,VWS V14.01,2013-05-05 09:30:00,
2013-05-05 05:33:00,56.7,56.7,29.29,NNE,14,0.0,4.0,100,0.00,,,0.00,VWS V14.01,2013-05-05 09:33:00,
2013-05-05 05:38:00,56.7,56.7,29.29,NNE,14,0.0,4.0,100,0.00,,,0.00,VWS V14.01,2013-05-05 09:38:00,
2013-05-05 05:40:00,56.7,56.7,29.29,NNE,14,0.0,4.0,100,0.00,,,0.00,VWS V14.01,2013-05-05 09:40:00,
2013-05-05 05:43:00,56.7,56.7,29.29,WSW,244,0.0,0.0,100,0.00,,,0.00,VWS V14.01,2013-05-05 09:43:00,
2013-05-05 05:48:00,56.7,56.7,29.29,South,175,0.0,0.0,100,0.00,,,0.00,VWS V14.01,2013-05-05 09:48:00,
2013-05-05 05:50:00,56.7,56.7,29.32,South,175,0.0,0.0,100,0.00,,,0.00,VWS V14.01,2013-05-05 09:50:00,
2013-05-05 05:53:00,56.7,56.7,29.32,South,180,0.0,0.0,100,0.00,,,0.00,VWS V14.01,2013-05-05 09:53:00,
2013-05-05 05:58:00,56.9,56.9,29.32,SSE,165,0.0,0.0,100,0.00,,,0.00,VWS V14.01,2013-05-05 09:58:00,
2013-05-05 06:00:00,56.9,56.9,29.32,SSW,200,0.0,0.0,100,0.00,,,0.00,VWS V14.01,2013-05-05 10:00:00,
2013-05-05 06:03:00,56.9,56.9,29.32,SSW,199,0.0,0.0,100,0.00,,,0.00,VWS V14.01,2013-05-05 10:03:00,
2013-05-05 06:08:00,56.9,56.9,29.32,SSE,159,0.0,0.0,100,0.00,,,0.00,VWS V14.01,2013-05-05 10:08:00,
2013-05-05 06:10:00,56.9,56.9,29.32,SSE,159,0.0,0.0,100,0.00,,,0.00,VWS V14.01,2013-05-05 10:10:00,
2013-05-05 06:13:00,56.9,56.9,29.32,ESE,106,0.0,0.0,100,0.00,,,0.00,VWS V14.01,2013-05-05 10:13:00,
2013-05-05 06:19:00,56.9,56.9,29.32,ESE,106,0.0,0.0,100,0.00,,,0.00,VWS V14.01,2013-05-05 10:19:00,
2013-05-05 06:20:00,56.9,56.9,29.32,East,82,0.0,0.0,100,0.00,,,0.00,VWS V14.01,2013-05-05 10:20:00,
2013-05-05 06:24:00,56.7,56.7,29.32,East,83,3.1,3.1,100,0.00,,,0.00,VWS V14.01,2013-05-05 10:24:00,
2013-05-05 06:29:00,56.7,56.7,29.32,ENE,70,0.0,3.1,100,0.00,,,0.00,VWS V14.01,2013-05-05 10:29:00,
2013-05-05 06:34:00,56.7,56.7,29.32,ENE,70,0.0,0.0,100,0.00,,,0.00,VWS V14.01,2013-05-05 10:34:00,
2013-05-05 06:39:00,56.7,56.7,29.32,East,93,0.0,0.0,100,0.00,,,0.00,VWS V14.01,2013-05-05 10:39:00,
2013-05-05 06:40:00,56.7,56.7,29.32,ESE,110,0.0,0.0,100,0.00,,,0.00,VWS V14.01,2013-05-05 10:40:00,
2013-05-05 06:44:00,56.7,56.7,29.32,ESE,110,0.0,0.0,100,0.00,,,0.00,VWS V14.01,2013-05-05 10:44:00,
2013-05-05 06:49:00,56.7,56.7,29.32,ESE,110,0.0,0.0,100,0.00,,,0.00,VWS V14.01,2013-05-05 10:49:00,
2013-05-05 06:50:00,56.7,56.7,29.32,ESE,110,0.0,0.0,100,0.00,,,0.00,VWS V14.01,2013-05-05 10:50:00,
2013-05-05 06:54:00,56.7,56.7,29.32,WSW,253,0.0,0.0,100,0.00,,,0.00,VWS V14.01,2013-05-05 10:54:00,
2013-05-05 06:59:00,56.7,56.7,29.32,WSW,243,0.0,0.0,100,0.00,,,0.00,VWS V14.01,2013-05-05 10:59:00,
2013-05-05 07:00:00,56.7,56.7,29.32,WSW,243,0.0,0.0,100,0.00,,,0.00,VWS V14.01,2013-05-05 11:00:00,
2013-05-05 07:09:00,56.7,56.7,29.32,South,185,0.0,0.0,100,0.00,,,0.00,VWS V14.01,2013-05-05 11:09:00,
2013-05-05 07:10:00,56.7,56.7,29.32,South,185,0.0,0.0,100,0.00,,,0.00,VWS V14.01,2013-05-05 11:10:00,
2013-05-05 07:14:00,56.9,56.9,29.32,South,185,0.0,0.0,100,0.00,,,0.00,VWS V14.01,2013-05-05 11:14:00,
2013-05-05 07:19:00,56.9,56.9,29.32,South,185,0.0,0.0,100,0.00,,,0.00,VWS V14.01,2013-05-05 11:19:00,
2013-05-05 07:20:00,56.9,56.9,29.32,South,185,0.0,0.0,100,0.00,,,0.00,VWS V14.01,2013-05-05 11:20:00,
2013-05-05 07:24:00,56.9,56.9,29.32,South,185,0.0,0.0,100,0.00,,,0.00,VWS V14.01,2013-05-05 11:24:00,
2013-05-05 07:29:00,56.9,56.9,29.32,South,185,0.0,0.0,100,0.00,,,0.00,VWS V14.01,2013-05-05 11:29:00,
2013-05-05 07:30:00,56.9,56.9,29.32,South,185,0.0,0.0,100,0.00,,,0.00,VWS V14.01,2013-05-05 11:30:00,
2013-05-05 07:39:00,56.9,56.9,29.32,South,185,0.0,0.0,100,0.00,,,0.00,VWS V14.01,2013-05-05 11:39:00,
2013-05-05 07:40:00,56.9,56.9,29.32,South,185,0.0,0.0,100,0.00,,,0.00,VWS V14.01,2013-05-05 11:40:00,
2013-05-05 07:49:00,56.9,56.9,29.32,SSW,199,0.0,0.0,100,0.00,,,0.00,VWS V14.01,2013-05-05 11:49:00,
2013-05-05 07:50:00,56.9,56.9,29.32,SSW,199,0.0,0.0,100,0.00,,,0.00,VWS V14.01,2013-05-05 11:50:00,
2013-05-05 07:54:00,56.9,56.9,29.32,SSW,199,0.0,0.0,100,0.00,,,0.00,VWS V14.01,2013-05-05 11:54:00,
2013-05-05 07:59:00,56.9,56.9,29.32,SSW,199,0.0,0.0,100,0.00,,,0.00,VWS V14.01,2013-05-05 11:59:00,
2013-05-05 08:00:00,56.9,56.9,29.32,SSW,199,0.0,0.0,100,0.00,,,0.00,VWS V14.01,2013-05-05 12:00:00,
2013-05-05 08:09:00,57.1,57.1,29.32,SSE,159,0.0,0.0,100,0.00,,,0.00,VWS V14.01,2013-05-05 12:09:00,
2013-05-05 08:10:00,57.1,57.1,29.32,SSE,159,0.0,0.0,100,0.00,,,0.00,VWS V14.01,2013-05-05 12:10:00,
2013-05-05 08:19:00,57.1,57.1,29.35,South,169,0.0,0.0,100,0.00,,,0.00,VWS V14.01,2013-05-05 12:19:00,
2013-05-05 08:24:00,57.1,57.1,29.35,SSE,150,0.0,0.0,100,0.00,,,0.00,VWS V14.01,2013-05-05 12:24:00,
2013-05-05 08:29:00,57.1,57.1,29.35,SSW,199,0.0,0.0,100,0.00,,,0.00,VWS V14.01,2013-05-05 12:29:00,
2013-05-05 08:30:00,57.1,57.1,29.35,SSW,199,0.0,0.0,100,0.00,,,0.00,VWS V14.01,2013-05-05 12:30:00,
2013-05-05 08:39:00,57.5,57.5,29.35,ESE,119,0.0,0.0,100,0.00,,,0.00,VWS V14.01,2013-05-05 12:39:00,
2013-05-05 08:40:00,57.5,57.5,29.35,SSE,159,0.0,0.0,100,0.00,,,0.00,VWS V14.01,2013-05-05 12:40:00,
2013-05-05 08:44:00,57.6,57.6,29.35,SSE,159,0.0,0.0,100,0.00,,,0.00,VWS V14.01,2013-05-05 12:44:00,
2013-05-05 08:49:00,57.6,57.6,29.35,SSE,159,0.0,0.0,100,0.00,,,0.00,VWS V14.01,2013-05-05 12:49:00,
2013-05-05 08:50:00,57.6,57.6,29.35,SSE,159,0.0,0.0,100,0.00,,,0.00,VWS V14.01,2013-05-05 12:50:00,
2013-05-05 08:54:00,57.6,57.6,29.35,SSE,159,0.0,0.0,100,0.00,,,0.00,VWS V14.01,2013-05-05 12:54:00,
2013-05-05 08:59:00,57.8,57.8,29.35,South,179,0.0,0.0,100,0.00,,,0.00,VWS V14.01,2013-05-05 12:59:00,
2013-05-05 09:00:00,57.8,57.8,29.35,South,179,0.0,0.0,100,0.00,,,0.00,VWS V14.01,2013-05-05 13:00:00,
2013-05-05 09:04:00,57.8,57.8,29.35,South,179,0.0,0.0,100,0.00,,,0.00,VWS V14.01,2013-05-05 13:04:00,
2013-05-05 09:09:00,58.0,58.0,29.35,SSE,165,0.0,0.0,100,0.00,,,0.00,VWS V14.01,2013-05-05 13:09:00,
2013-05-05 09:14:00,58.0,58.0,29.35,SSE,164,0.0,0.0,100,0.00,,,0.00,VWS V14.01,2013-05-05 13:14:00,
2013-05-05 09:19:00,58.0,58.0,29.35,South,177,0.0,0.0,100,0.00,,,0.00,VWS V14.01,2013-05-05 13:19:00,
2013-05-05 09:20:00,58.0,58.0,29.35,West,259,0.0,0.0,100,0.00,,,0.00,VWS V14.01,2013-05-05 13:20:00,
2013-05-05 09:24:00,58.2,58.2,29.35,SSE,159,0.0,0.0,100,0.00,,,0.00,VWS V14.01,2013-05-05 13:24:00,
2013-05-05 09:29:00,58.2,58.2,29.35,SSW,205,0.0,0.0,100,0.00,,,0.00,VWS V14.01,2013-05-05 13:29:00,
2013-05-05 09:30:00,58.2,58.2,29.35,SSW,205,0.0,0.0,100,0.00,,,0.00,VWS V14.01,2013-05-05 13:30:00,
2013-05-05 09:34:00,58.2,58.2,29.35,SSW,201,0.0,0.0,100,0.00,,,0.00,VWS V14.01,2013-05-05 13:34:00,
2013-05-05 09:39:00,58.2,58.2,29.35,NNW,334,0.0,0.0,100,0.00,,,0.00,VWS V14.01,2013-05-05 13:39:00,
2013-05-05 09:44:00,58.4,58.4,29.35,NNW,334,0.0,0.0,100,0.00,,,0.00,VWS V14.01,2013-05-05 13:44:00,
2013-05-05 09:49:00,58.5,58.5,29.35,South,187,0.0,0.0,100,0.00,,,0.00,VWS V14.01,2013-05-05 13:49:00,
2013-05-05 09:50:00,58.5,58.5,29.35,South,187,0.0,0.0,100,0.00,,,0.00,VWS V14.01,2013-05-05 13:50:00,
2013-05-05 09:54:00,58.5,58.5,29.35,ENE,60,0.0,0.0,100,0.00,,,0.00,VWS V14.01,2013-05-05 13:54:00,
2013-05-05 09:59:00,58.7,58.7,29.35,ENE,60,0.0,0.0,100,0.00,,,0.00,VWS V14.01,2013-05-05 13:59:00,
2013-05-05 10:00:00,58.7,58.7,29.35,North,357,0.0,0.0,100,0.00,,,0.00,VWS V14.01,2013-05-05 14:00:00,
2013-05-05 10:04:00,58.7,58.7,29.35,South,186,0.0,2.2,100,0.00,,,0.00,VWS V14.01,2013-05-05 14:04:00,
2013-05-05 10:09:00,58.7,58.7,29.35,SW,222,0.0,2.2,100,0.00,,,0.00,VWS V14.01,2013-05-05 14:09:00,
2013-05-05 10:14:00,58.7,58.7,29.35,West,273,0.0,3.6,100,0.00,,,0.00,VWS V14.01,2013-05-05 14:14:00,
2013-05-05 10:19:00,58.7,58.7,29.35,WSW,247,0.0,3.6,100,0.00,,,0.00,VWS V14.01,2013-05-05 14:19:00,
2013-05-05 10:24:00,58.7,58.7,29.35,NE,50,2.7,2.7,100,0.00,,,0.00,VWS V14.01,2013-05-05 14:24:00,
2013-05-05 10:29:00,58.9,58.9,29.35,East,86,2.7,2.7,100,0.00,,,0.00,VWS V14.01,2013-05-05 14:29:00,
2013-05-05 10:34:00,58.9,58.9,29.35,East,86,2.7,2.7,100,0.00,,,0.00,VWS V14.01,2013-05-05 14:34:00,
2013-05-05 10:39:00,58.9,58.9,29.35,NNE,17,0.0,2.7,100,0.00,,,0.00,VWS V14.01,2013-05-05 14:39:00,
2013-05-05 10:40:00,58.9,58.9,29.35,North,1,0.0,2.7,100,0.00,,,0.00,VWS V14.01,2013-05-05 14:40:00,
2013-05-05 10:44:00,58.9,58.9,29.35,WSW,247,0.0,0.0,100,0.00,,,0.00,VWS V14.01,2013-05-05 14:44:00,
2013-05-05 10:49:00,58.9,58.9,29.35,NE,44,3.1,3.1,100,0.00,,,0.00,VWS V14.01,2013-05-05 14:49:00,
2013-05-05 10:50:00,58.9,58.9,29.35,NE,44,3.1,3.1,100,0.00,,,0.00,VWS V14.01,2013-05-05 14:50:00,
2013-05-05 10:54:00,58.9,58.9,29.35,NNE,22,3.1,3.1,100,0.00,,,0.00,VWS V14.01,2013-05-05 14:54:00,
2013-05-05 10:59:00,58.9,58.9,29.35,NNW,340,0.0,3.1,100,0.00,,,0.00,VWS V14.01,2013-05-05 14:59:00,
2013-05-05 11:00:00,58.9,58.9,29.35,NNW,340,0.0,3.1,100,0.00,,,0.00,VWS V14.01,2013-05-05 15:00:00,
2013-05-05 11:04:00,58.9,58.9,29.35,North,1,0.0,0.0,100,0.00,,,0.00,VWS V14.01,2013-05-05 15:04:00,
2013-05-05 11:09:00,59.3,59.3,29.35,North,1,0.0,0.0,100,0.00,,,0.00,VWS V14.01,2013-05-05 15:09:00,
2013-05-05 11:10:00,59.3,59.3,29.35,North,1,0.0,0.0,100,0.00,,,0.00,VWS V14.01,2013-05-05 15:10:00,
2013-05-05 11:14:00,59.3,59.3,29.35,NNW,334,0.0,0.0,100,0.00,,,0.00,VWS V14.01,2013-05-05 15:14:00,
2013-05-05 11:19:00,60.3,60.3,29.35,SSW,203,0.0,0.0,100,0.00,,,0.00,VWS V14.01,2013-05-05 15:19:00,
2013-05-05 11:20:00,60.3,60.3,29.35,SSW,203,0.0,0.0,100,0.00,,,0.00,VWS V14.01,2013-05-05 15:20:00,
2013-05-05 11:29:00,60.5,60.5,29.35,West,267,2.2,2.2,100,0.00,,,0.00,VWS V14.01,2013-05-05 15:29:00,
2013-05-05 11:30:00,60.5,60.5,29.35,SW,230,0.0,2.2,100,0.00,,,0.00,VWS V14.01,2013-05-05 15:30:00,
2013-05-05 11:34:00,61.6,61.6,29.35,SE,126,0.0,0.0,100,0.00,,,0.00,VWS V14.01,2013-05-05 15:34:00,
2013-05-05 11:39:00,61.6,61.6,29.35,East,79,0.0,0.0,100,0.00,,,0.00,VWS V14.01,2013-05-05 15:39:00,
2013-05-05 11:40:00,61.6,61.6,29.35,East,79,0.0,0.0,100,0.00,,,0.00,VWS V14.01,2013-05-05 15:40:00,
2013-05-05 11:44:00,61.6,61.6,29.35,East,79,0.0,0.0,100,0.00,,,0.00,VWS V14.01,2013-05-05 15:44:00,
2013-05-05 11:49:00,61.6,61.6,29.35,NNE,32,0.0,0.0,100,0.00,,,0.00,VWS V14.01,2013-05-05 15:49:00,
2013-05-05 11:54:00,61.6,61.6,29.35,North,1,0.0,0.0,100,0.00,,,0.00,VWS V14.01,2013-05-05 15:54:00,
2013-05-05 11:59:00,62.0,62.0,29.35,North,1,0.0,0.0,100,0.00,,,0.00,VWS V14.01,2013-05-05 15:59:00,
2013-05-05 12:00:00,62.0,62.0,29.35,North,1,0.0,0.0,100,0.00,,,0.00,VWS V14.01,2013-05-05 16:00:00,
2013-05-05 12:04:00,62.0,62.0,29.35,NW,312,0.0,0.0,100,0.00,,,0.00,VWS V14.01,2013-05-05 16:04:00,
2013-05-05 12:09:00,61.4,61.4,29.35,NW,312,0.0,0.0,100,0.00,,,0.00,VWS V14.01,2013-05-05 16:09:00,
2013-05-05 12:10:00,61.4,61.4,29.35,NW,312,0.0,0.0,100,0.00,,,0.00,VWS V14.01,2013-05-05 16:10:00,
2013-05-05 12:14:00,60.9,60.9,29.35,ENE,73,0.0,0.0,100,0.00,,,0.00,VWS V14.01,2013-05-05 16:14:00,
2013-05-05 12:19:00,60.9,60.9,29.38,ENE,73,0.0,0.0,100,0.00,,,0.00,VWS V14.01,2013-05-05 16:19:00,
2013-05-05 12:20:00,60.9,60.9,29.38,ENE,73,0.0,0.0,100,0.00,,,0.00,VWS V14.01,2013-05-05 16:20:00,
2013-05-05 12:24:00,60.2,60.2,29.38,ENE,67,0.0,0.0,100,0.00,,,0.00,VWS V14.01,2013-05-05 16:24:00,
2013-05-05 12:29:00,60.2,60.2,29.38,East,88,0.0,0.0,100,0.00,,,0.00,VWS V14.01,2013-05-05 16:29:00,
2013-05-05 12:30:00,60.5,60.5,29.38,East,88,0.0,0.0,100,0.00,,,0.00,VWS V14.01,2013-05-05 16:30:00,
2013-05-05 12:34:00,60.5,60.5,29.38,ENE,74,0.0,0.0,100,0.00,,,0.00,VWS V14.01,2013-05-05 16:34:00,
2013-05-05 12:39:00,60.5,60.5,29.38,ENE,63,0.0,0.0,100,0.00,,,0.00,VWS V14.01,2013-05-05 16:39:00,
2013-05-05 12:40:00,60.5,60.5,29.38,ENE,63,0.0,0.0,100,0.00,,,0.00,VWS V14.01,2013-05-05 16:40:00,
2013-05-05 12:44:00,60.7,60.7,29.38,NE,45,0.0,0.0,100,0.00,,,0.00,VWS V14.01,2013-05-05 16:44:00,
2013-05-05 12:49:00,60.9,60.9,29.38,East,100,0.0,0.0,100,0.00,,,0.00,VWS V14.01,2013-05-05 16:49:00,
2013-05-05 12:50:00,60.9,60.9,29.38,East,100,0.0,0.0,100,0.00,,,0.00,VWS V14.01,2013-05-05 16:50:00,
2013-05-05 12:54:00,61.2,61.2,29.38,ENE,73,0.0,0.0,100,0.00,,,0.00,VWS V14.01,2013-05-05 16:54:00,
2013-05-05 12:59:00,61.2,61.2,29.38,ENE,73,0.0,0.0,100,0.00,,,0.00,VWS V14.01,2013-05-05 16:59:00,
2013-05-05 13:00:00,61.2,61.2,29.38,ENE,73,0.0,0.0,100,0.00,,,0.00,VWS V14.01,2013-05-05 17:00:00,
2013-05-05 13:04:00,61.2,61.2,29.38,ENE,78,0.0,0.0,100,0.00,,,0.00,VWS V14.01,2013-05-05 17:04:00,
2013-05-05 13:09:00,62.0,62.0,29.38,East,92,0.0,0.0,100,0.00,,,0.00,VWS V14.01,2013-05-05 17:09:00,
2013-05-05 13:10:00,62.0,62.0,29.38,East,92,0.0,0.0,100,0.00,,,0.00,VWS V14.01,2013-05-05 17:10:00,
2013-05-05 13:19:00,62.1,62.1,29.38,East,82,5.8,6.3,100,0.00,,,0.00,VWS V14.01,2013-05-05 17:19:00,
2013-05-05 13:20:00,62.1,62.1,29.38,NE,48,5.4,6.3,100,0.00,,,0.00,VWS V14.01,2013-05-05 17:20:00,
2013-05-05 13:24:00,62.1,62.1,29.38,South,178,0.0,5.4,100,0.00,,,0.00,VWS V14.01,2013-05-05 17:24:00,
2013-05-05 13:29:00,62.9,62.9,29.38,East,79,3.1,5.4,100,0.00,,,0.00,VWS V14.01,2013-05-05 17:29:00,
2013-05-05 13:30:00,62.9,62.9,29.38,NE,56,0.0,5.4,100,0.00,,,0.00,VWS V14.01,2013-05-05 17:30:00,
2013-05-05 13:34:00,63.2,63.2,29.38,ESE,111,0.0,0.0,100,0.00,,,0.00,VWS V14.01,2013-05-05 17:34:00,
2013-05-05 13:39:00,63.2,63.2,29.38,ENE,69,0.0,0.0,100,0.00,,,0.00,VWS V14.01,2013-05-05 17:39:00,
2013-05-05 13:40:00,63.4,63.4,29.38,ENE,69,0.0,0.0,100,0.00,,,0.00,VWS V14.01,2013-05-05 17:40:00,
2013-05-05 13:44:00,63.2,63.2,29.38,NE,56,6.3,6.3,100,0.00,,,0.00,VWS V14.01,2013-05-05 17:44:00,
2013-05-05 13:49:00,63.2,63.2,29.38,ESE,102,0.0,6.3,100,0.00,,,0.00,VWS V14.01,2013-05-05 17:49:00,
2013-05-05 13:50:00,63.2,63.2,29.38,ESE,102,0.0,6.3,100,0.00,,,0.00,VWS V14.01,2013-05-05 17:50:00,
2013-05-05 13:54:00,63.2,63.2,29.38,East,97,0.0,4.0,100,0.00,,,0.00,VWS V14.01,2013-05-05 17:54:00,
2013-05-05 13:59:00,65.2,65.2,29.38,SSE,166,0.0,4.0,100,0.00,,,0.00,VWS V14.01,2013-05-05 17:59:00,
2013-05-05 14:00:00,65.2,65.2,29.38,SSE,166,0.0,4.0,100,0.00,,,0.00,VWS V14.01,2013-05-05 18:00:00,
2013-05-05 14:04:00,65.4,65.4,29.38,SSE,166,0.0,0.0,100,0.00,,,0.00,VWS V14.01,2013-05-05 18:04:00,
2013-05-05 14:09:00,65.7,65.7,29.38,East,85,3.6,3.6,100,0.00,,,0.00,VWS V14.01,2013-05-05 18:09:00,
2013-05-05 14:10:00,65.7,65.7,29.38,East,89,0.0,3.6,100,0.00,,,0.00,VWS V14.01,2013-05-05 18:10:00,
2013-05-05 14:14:00,65.7,65.7,29.38,ENE,75,0.0,0.0,100,0.00,,,0.00,VWS V14.01,2013-05-05 18:14:00,
2013-05-05 14:19:00,65.7,65.7,29.38,ENE,75,0.0,0.0,100,0.00,,,0.00,VWS V14.01,2013-05-05 18:19:00,
2013-05-05 14:20:00,65.7,65.7,29.38,ENE,75,0.0,0.0,100,0.00,,,0.00,VWS V14.01,2013-05-05 18:20:00,
2013-05-05 14:29:00,65.7,65.7,29.38,East,87,3.1,3.1,100,0.00,,,0.00,VWS V14.01,2013-05-05 18:29:00,
2013-05-05 14:30:00,65.7,65.7,29.38,East,87,3.1,3.1,100,0.00,,,0.00,VWS V14.01,2013-05-05 18:30:00,
2013-05-05 14:34:00,65.9,65.9,29.38,ENE,75,0.0,3.1,100,0.00,,,0.00,VWS V14.01,2013-05-05 18:34:00,
2013-05-05 14:40:00,65.9,65.9,29.38,NE,56,0.0,3.1,100,0.00,,,0.00,VWS V14.01,2013-05-05 18:40:00,
2013-05-05 14:45:00,66.1,66.1,29.38,NE,55,2.2,2.2,100,0.00,,,0.00,VWS V14.01,2013-05-05 18:45:00,
2013-05-05 14:50:00,66.1,66.1,29.38,East,92,0.0,2.2,100,0.00,,,0.00,VWS V14.01,2013-05-05 18:50:00,
2013-05-05 14:55:00,65.9,65.9,29.38,SSE,150,2.2,2.2,100,0.00,,,0.00,VWS V14.01,2013-05-05 18:55:00,
2013-05-05 15:00:00,66.3,66.3,29.38,ENE,78,0.0,2.2,100,0.00,,,0.00,VWS V14.01,2013-05-05 19:00:00,
2013-05-05 15:05:00,66.5,66.5,29.38,East,95,3.1,4.0,100,0.00,,,0.00,VWS V14.01,2013-05-05 19:05:00,
2013-05-05 15:10:00,66.5,66.5,29.38,West,278,0.0,4.0,100,0.00,,,0.00,VWS V14.01,2013-05-05 19:10:00,
2013-05-05 15:20:00,68.4,65.3,29.38,NE,34,3.6,3.6,90,0.00,,,0.00,VWS V14.01,2013-05-05 19:20:00,
2013-05-05 15:25:00,68.3,64.4,29.38,ESE,103,3.6,3.6,87,0.00,,,0.00,VWS V14.01,2013-05-05 19:25:00,
2013-05-05 15:30:00,68.1,64.2,29.38,East,81,0.0,8.3,87,0.00,,,0.00,VWS V14.01,2013-05-05 19:30:00,
2013-05-05 15:35:00,68.1,64.2,29.38,NE,38,4.0,4.0,87,0.00,,,0.00,VWS V14.01,2013-05-05 19:35:00,
2013-05-05 15:40:00,68.1,65.7,29.38,East,98,0.0,4.0,92,0.00,,,0.00,VWS V14.01,2013-05-05 19:40:00,
2013-05-05 15:50:00,68.4,62.2,29.38,ENE,63,6.3,6.3,80,0.00,,,0.00,VWS V14.01,2013-05-05 19:50:00,
2013-05-05 15:55:00,68.6,63.2,29.35,NE,50,0.0,2.2,83,0.00,,,0.00,VWS V14.01,2013-05-05 19:55:00,
2013-05-05 16:00:00,68.8,61.7,29.35,NE,42,2.2,3.1,78,0.00,,,0.00,VWS V14.01,2013-05-05 20:00:00,
2013-05-05 16:05:00,69.2,62.9,29.35,ENE,77,2.7,2.7,80,0.00,,,0.00,VWS V14.01,2013-05-05 20:05:00,
2013-05-05 16:10:00,69.7,61.8,29.35,ENE,75,6.3,6.3,76,0.00,,,0.00,VWS V14.01,2013-05-05 20:10:00,
2013-05-05 16:15:00,69.7,61.8,29.35,East,87,4.9,6.3,76,0.00,,,0.00,VWS V14.01,2013-05-05 20:15:00,
2013-05-05 16:20:00,69.3,60.5,29.35,NE,56,0.0,6.3,74,0.00,,,0.00,VWS V14.01,2013-05-05 20:20:00,
2013-05-05 16:25:00,68.6,60.7,29.35,NNE,29,6.3,6.3,76,0.00,,,0.00,VWS V14.01,2013-05-05 20:25:00,
2013-05-05 16:30:00,68.6,60.7,29.35,NE,54,3.1,6.3,76,0.00,,,0.00,VWS V14.01,2013-05-05 20:30:00,
2013-05-05 16:35:00,69.0,60.2,29.35,SSE,158,3.1,3.6,74,0.00,,,0.00,VWS V14.01,2013-05-05 20:35:00,
2013-05-05 16:40:00,69.0,60.2,29.35,North,1,3.1,3.6,74,0.00,,,0.00,VWS V14.01,2013-05-05 20:40:00,
2013-05-05 16:45:00,68.4,57.9,29.35,NNE,21,3.6,3.6,69,0.00,,,0.00,VWS V14.01,2013-05-05 20:45:00,
2013-05-05 16:50:00,69.0,54.4,29.35,NE,54,8.1,8.1,60,0.00,,,0.00,VWS V14.01,2013-05-05 20:50:00,
2013-05-05 16:55:00,69.0,54.4,29.35,SE,144,4.0,8.1,60,0.00,,,0.00,VWS V14.01,2013-05-05 20:55:00,
2013-05-05 17:00:00,69.2,54.6,29.35,NNE,20,2.7,8.1,60,0.00,,,0.00,VWS V14.01,2013-05-05 21:00:00,
2013-05-05 17:10:00,69.2,51.3,29.35,ENE,60,5.8,5.8,53,0.00,,,0.00,VWS V14.01,2013-05-05 21:10:00,
2013-05-05 17:15:00,69.0,52.3,29.35,NNE,18,6.3,6.3,55,0.00,,,0.00,VWS V14.01,2013-05-05 21:15:00,
2013-05-05 17:20:00,69.0,52.3,29.35,North,2,2.7,6.3,55,0.00,,,0.00,VWS V14.01,2013-05-05 21:20:00,
2013-05-05 17:25:00,69.0,52.3,29.35,NE,36,4.0,6.3,55,0.00,,,0.00,VWS V14.01,2013-05-05 21:25:00,
2013-05-05 17:30:00,69.3,52.6,29.35,ENE,58,4.5,6.3,55,0.00,,,0.00,VWS V14.01,2013-05-05 21:30:00,
2013-05-05 17:35:00,69.7,52.9,29.35,SSE,158,2.7,5.4,55,0.00,,,0.00,VWS V14.01,2013-05-05 21:35:00,
2013-05-05 17:40:00,69.9,54.2,29.35,NE,42,5.4,5.4,58,0.00,,,0.00,VWS V14.01,2013-05-05 21:40:00,
2013-05-05 17:45:00,69.9,54.2,29.35,NNE,15,2.2,5.4,58,0.00,,,0.00,VWS V14.01,2013-05-05 21:45:00,
2013-05-05 17:50:00,70.2,53.4,29.35,NE,51,3.1,6.3,55,0.00,,,0.00,VWS V14.01,2013-05-05 21:50:00,
2013-05-05 17:55:00,70.2,52.3,29.35,NE,51,3.1,3.1,53,0.00,,,0.00,VWS V14.01,2013-05-05 21:55:00,
2013-05-05 18:00:00,70.1,52.1,29.35,NE,51,2.7,4.0,53,0.00,,,0.00,VWS V14.01,2013-05-05 22:00:00,
2013-05-05 18:05:00,69.9,51.9,29.35,ENE,69,2.2,4.5,53,0.00,,,0.00,VWS V14.01,2013-05-05 22:05:00,
2013-05-05 18:10:00,69.9,51.9,29.35,ENE,76,2.7,4.5,53,0.00,,,0.00,VWS V14.01,2013-05-05 22:10:00,
2013-05-05 18:15:00,69.9,51.9,29.35,East,88,3.1,4.9,53,0.00,,,0.00,VWS V14.01,2013-05-05 22:15:00,
2013-05-05 18:20:00,69.9,51.9,29.35,East,83,2.2,4.9,53,0.00,,,0.00,VWS V14.01,2013-05-05 22:20:00,
2013-05-05 18:25:00,70.1,52.1,29.35,North,10,2.2,2.7,53,0.00,,,0.00,VWS V14.01,2013-05-05 22:25:00,
2013-05-05 18:30:00,69.9,51.9,29.35,East,86,3.6,3.6,53,0.00,,,0.00,VWS V14.01,2013-05-05 22:30:00,
2013-05-05 18:35:00,69.9,51.9,29.35,ENE,74,2.2,3.6,53,0.00,,,0.00,VWS V14.01,2013-05-05 22:35:00,
2013-05-05 18:40:00,69.9,51.9,29.35,NE,42,3.1,3.6,53,0.00,,,0.00,VWS V14.01,2013-05-05 22:40:00,
2013-05-05 18:45:00,69.0,51.1,29.35,NNE,28,0.0,3.1,53,0.00,,,0.00,VWS V14.01,2013-05-05 22:45:00,
2013-05-05 18:50:00,69.0,51.1,29.35,NE,46,0.0,0.0,53,0.00,,,0.00,VWS V14.01,2013-05-05 22:50:00,
2013-05-05 18:55:00,68.8,55.3,29.35,NE,46,0.0,0.0,62,0.00,,,0.00,VWS V14.01,2013-05-05 22:55:00,
2013-05-05 19:00:00,68.8,55.3,29.35,NE,46,0.0,0.0,62,0.00,,,0.00,VWS V14.01,2013-05-05 23:00:00,
2013-05-05 19:05:00,68.1,53.6,29.35,NE,51,3.1,3.1,60,0.00,,,0.00,VWS V14.01,2013-05-05 23:05:00,
2013-05-05 19:10:00,67.5,55.1,29.35,NE,51,2.7,3.1,64,0.00,,,0.00,VWS V14.01,2013-05-05 23:10:00,
2013-05-05 19:15:00,67.5,55.1,29.35,NE,51,0.0,2.7,64,0.00,,,0.00,VWS V14.01,2013-05-05 23:15:00,
2013-05-05 19:20:00,66.8,59.8,29.35,NE,52,0.0,0.0,78,0.00,,,0.00,VWS V14.01,2013-05-05 23:20:00,
2013-05-05 19:25:00,66.8,59.8,29.35,NE,56,0.0,0.0,78,0.00,,,0.00,VWS V14.01,2013-05-05 23:25:00,
2013-05-05 19:30:00,66.8,59.8,29.35,NE,56,0.0,0.0,78,0.00,,,0.00,VWS V14.01,2013-05-05 23:30:00,
2013-05-05 19:35:00,65.0,60.4,29.35,NE,56,0.0,0.0,85,0.00,,,0.00,VWS V14.01,2013-05-05 23:35:00,
2013-05-05 19:40:00,64.7,60.8,29.38,NE,56,0.0,0.0,87,0.00,,,0.00,VWS V14.01,2013-05-05 23:40:00,
2013-05-05 19:45:00,63.9,61.6,29.38,NE,56,0.0,0.0,92,0.00,,,0.00,VWS V14.01,2013-05-05 23:45:00,
2013-05-05 19:50:00,63.6,61.2,29.38,NE,56,0.0,0.0,92,0.00,,,0.00,VWS V14.01,2013-05-05 23:50:00,
2013-05-05 19:55:00,62.3,62.0,29.38,NE,56,0.0,0.0,99,0.00,,,0.00,VWS V14.01,2013-05-05 23:55:00,
2013-05-05 20:00:00,62.3,62.0,29.38,NE,56,0.0,0.0,99,0.00,,,0.00,VWS V14.01,2013-05-06 00:00:00,
2013-05-05 20:05:00,61.6,61.6,29.38,NE,56,0.0,0.0,100,0.00,,,0.00,VWS V14.01,2013-05-06 00:05:00,
2013-05-05 20:10:00,60.3,60.3,29.38,NE,56,0.0,0.0,100,0.00,,,0.00,VWS V14.01,2013-05-06 00:10:00,
2013-05-05 20:15:00,59.8,59.8,29.38,NE,56,0.0,0.0,100,0.00,,,0.00,VWS V14.01,2013-05-06 00:15:00,
2013-05-05 20:20:00,59.4,59.4,29.38,NE,56,0.0,0.0,100,0.00,,,0.00,VWS V14.01,2013-05-06 00:20:00,
2013-05-05 20:25:00,59.4,59.4,29.38,NE,56,0.0,0.0,100,0.00,,,0.00,VWS V14.01,2013-05-06 00:25:00,
2013-05-05 20:30:00,58.9,58.9,29.38,NE,56,0.0,0.0,100,0.00,,,0.00,VWS V14.01,2013-05-06 00:30:00,
2013-05-05 20:35:00,58.9,58.9,29.38,NE,56,0.0,0.0,100,0.00,,,0.00,VWS V14.01,2013-05-06 00:35:00,
2013-05-05 20:40:00,58.4,58.4,29.38,NE,56,0.0,0.0,100,0.00,,,0.00,VWS V14.01,2013-05-06 00:40:00,
2013-05-05 20:45:00,58.2,58.2,29.38,NE,56,0.0,0.0,100,0.00,,,0.00,VWS V14.01,2013-05-06 00:45:00,
2013-05-05 20:50:00,58.2,58.2,29.38,NE,56,0.0,0.0,100,0.00,,,0.00,VWS V14.01,2013-05-06 00:50:00,
2013-05-05 20:55:00,57.6,57.6,29.38,NE,56,0.0,0.0,100,0.00,,,0.00,VWS V14.01,2013-05-06 00:55:00,
2013-05-05 21:00:00,57.6,57.6,29.38,NE,56,0.0,0.0,100,0.00,,,0.00,VWS V14.01,2013-05-06 01:00:00,
2013-05-05 21:05:00,57.3,57.3,29.38,NE,56,0.0,0.0,100,0.00,,,0.00,VWS V14.01,2013-05-06 01:05:00,
2013-05-05 21:10:00,57.3,57.3,29.38,NE,56,0.0,0.0,100,0.00,,,0.00,VWS V14.01,2013-05-06 01:10:00,
2013-05-05 21:15:00,57.3,57.3,29.38,NE,56,0.0,0.0,100,0.00,,,0.00,VWS V14.01,2013-05-06 01:15:00,
2013-05-05 21:20:00,57.3,57.3,29.38,NE,56,0.0,0.0,100,0.00,,,0.00,VWS V14.01,2013-05-06 01:20:00,
2013-05-05 21:25:00,57.3,57.3,29.38,NE,56,0.0,0.0,100,0.00,,,0.00,VWS V14.01,2013-05-06 01:25:00,
2013-05-05 21:30:00,57.3,57.3,29.38,NE,56,0.0,0.0,100,0.00,,,0.00,VWS V14.01,2013-05-06 01:30:00,
2013-05-05 21:35:00,57.3,57.3,29.38,NE,56,0.0,0.0,100,0.00,,,0.00,VWS V14.01,2013-05-06 01:35:00,
2013-05-05 21:40:00,57.3,57.3,29.38,NE,56,0.0,0.0,100,0.00,,,0.00,VWS V14.01,2013-05-06 01:40:00,
2013-05-05 21:45:00,57.5,57.5,29.38,NE,56,0.0,0.0,100,0.00,,,0.00,VWS V14.01,2013-05-06 01:45:00,
2013-05-05 21:50:00,57.5,57.5,29.38,NE,56,0.0,0.0,100,0.00,,,0.00,VWS V14.01,2013-05-06 01:50:00,
2013-05-05 21:55:00,57.8,57.8,29.38,ENE,65,2.7,4.0,100,0.00,,,0.00,VWS V14.01,2013-05-06 01:55:00,
2013-05-05 22:00:00,57.8,57.8,29.38,East,93,0.0,0.0,100,0.00,,,0.00,VWS V14.01,2013-05-06 02:00:00,
2013-05-05 22:05:00,57.8,57.8,29.38,ENE,76,0.0,0.0,100,0.00,,,0.00,VWS V14.01,2013-05-06 02:05:00,
2013-05-05 22:10:00,59.3,59.3,29.38,NNE,31,0.0,2.2,100,0.00,,,0.00,VWS V14.01,2013-05-06 02:10:00,
2013-05-05 22:15:00,59.4,59.4,29.38,ENE,62,0.0,3.1,100,0.00,,,0.00,VWS V14.01,2013-05-06 02:15:00,
2013-05-05 22:20:00,59.4,59.4,29.38,NE,50,0.0,3.1,100,0.00,,,0.00,VWS V14.01,2013-05-06 02:20:00,
2013-05-05 22:25:00,59.4,59.4,29.38,NE,50,0.0,0.0,100,0.00,,,0.00,VWS V14.01,2013-05-06 02:25:00,
2013-05-05 22:30:00,59.4,59.4,29.35,NE,50,0.0,0.0,100,0.00,,,0.00,VWS V14.01,2013-05-06 02:30:00,
2013-05-05 22:35:00,59.4,59.4,29.38,NE,50,0.0,0.0,100,0.00,,,0.00,VWS V14.01,2013-05-06 02:35:00,
2013-05-05 22:40:00,58.5,58.5,29.38,NE,50,0.0,0.0,100,0.00,,,0.00,VWS V14.01,2013-05-06 02:40:00,
2013-05-05 22:45:00,58.2,58.2,29.38,NE,50,0.0,0.0,100,0.00,,,0.00,VWS V14.01,2013-05-06 02:45:00,
2013-05-05 22:50:00,58.0,58.0,29.38,NE,50,0.0,0.0,100,0.00,,,0.00,VWS V14.01,2013-05-06 02:50:00,
2013-05-05 22:55:00,58.0,58.0,29.38,NE,50,0.0,0.0,100,0.00,,,0.00,VWS V14.01,2013-05-06 02:55:00,
2013-05-05 23:00:00,58.0,58.0,29.38,ENE,76,0.0,3.1,100,0.00,,,0.00,VWS V14.01,2013-05-06 03:00:00,
2013-05-05 23:05:00,57.8,57.8,29.38,East,82,7.6,7.6,100,0.00,,,0.00,VWS V14.01,2013-05-06 03:05:00,
2013-05-05 23:10:00,57.8,57.8,29.38,East,95,4.0,4.0,100,0.00,,,0.00,VWS V14.01,2013-05-06 03:10:00,
2013-05-05 23:15:00,58.2,58.2,29.38,East,87,3.1,4.9,100,0.00,,,0.00,VWS V14.01,2013-05-06 03:15:00,
2013-05-05 23:20:00,58.2,58.2,29.38,ENE,73,4.9,4.9,100,0.00,,,0.00,VWS V14.01,2013-05-06 03:20:00,
2013-05-05 23:21:00,58.0,58.0,29.38,ENE,73,4.9,4.9,100,0.00,,,0.00,VWS V14.01,2013-05-06 03:21:00,
2013-05-05 23:26:00,57.6,57.6,29.38,ENE,63,4.0,4.9,100,0.00,,,0.00,VWS V14.01,2013-05-06 03:26:00,
2013-05-05 23:31:00,57.6,57.6,29.38,ENE,63,3.1,4.0,100,0.00,,,0.00,VWS V14.01,2013-05-06 03:31:00,
2013-05-05 23:36:00,57.6,57.6,29.38,ENE,57,5.4,5.4,100,0.00,,,0.00,VWS V14.01,2013-05-06 03:36:00,
2013-05-05 23:40:00,57.1,57.1,29.38,ENE,60,0.0,5.4,100,0.00,,,0.00,VWS V14.01,2013-05-06 03:40:00,
2013-05-05 23:41:00,57.1,57.1,29.38,ENE,60,0.0,0.0,100,0.00,,,0.00,VWS V14.01,2013-05-06 03:41:00,
2013-05-05 23:46:00,57.1,57.1,29.38,ENE,57,0.0,5.8,100,0.00,,,0.00,VWS V14.01,2013-05-06 03:46:00,
2013-05-05 23:50:00,56.7,56.7,29.38,East,79,0.0,5.8,100,0.00,,,0.00,VWS V14.01,2013-05-06 03:50:00,
2013-05-05 23:51:00,56.7,56.7,29.38,East,79,0.0,0.0,100,0.00,,,0.00,VWS V14.01,2013-05-06 03:51:00,
2013-05-05 23:56:00,56.6,56.6,29.38,East,94,0.0,5.4,100,0.00,,,0.00,VWS V14.01,2013-05-06 03:56:00,